User: anonymous   Login
Location: SAPM � Hemmingford
(45.0500°N, 73.5833°W)
Time: 08:40:13
(UTC-04:00)
Language:

Cosmos 1674 Rocket - Orbit

View from above orbital plane
View from above orbital plane
View from above satellite
View from above satellite

Ground track
Ground track

The orbit data is extracted from the following two-line orbital elements,

1 15945U 85069B   14298.13045365  .00000806  00000-0  95041-4 0  8012
2 15945 082.5260 317.5421 0019107 225.7102 194.5274 14.83445238577787
Epoch (UTC): 25 October 2014 03:07:51
Eccentricity: 0.0019107
inclination: 82.5260°
perigee height: 605 km
apogee height: 632 km
right ascension of ascending node: 317.5421°
argument of perigee: 225.7102°
revolutions per day: 14.83445238
mean anomaly at epoch: 194.5274°
orbit number at epoch: 57778

The dashed part of the orbit path shows where the satellite is in the earth's shadow,  

DLR